Flag for India Weather past 2 weeks in Bhilwara, Rajasthan, India

Now
95 °F

Haze.


Feels Like: 92 °F
Forecast: 86 / 106 °F
Wind: 7 mph from Northwest

Location: Jaipur / Sanganer

Current Time: May 31, 2015 at 3:22:55 AM

Latest Report: May 31, 2015 at 2:00 AM


Visibility: 2 mi

Pressure: 29.68 "Hg

Humidity: 22%

Dew point: 50 °F

Location of BhilwaraLocation

Historic Weather in Bhilwara — Graph

°F

Bhilwara temperature yesterday

Maximum temperature yesterday: 106 °F (at 2:00 PM)
Minimum temperature yesterday: 88 °F (at 5:00 AM)
Average temperature yesterday: 99 °F

Past Weeks' High & Low Weather Summary

 TemperatureHumidityPressure
High111 °F (May 18, 3:00 PM)48% (May 20, 4:00 AM)29.80 "Hg (May 20, 4:00 AM)
Low81 °F (May 20, 4:00 AM)2% (May 27, 3:00 PM)29.53 "Hg (May 23, 3:00 PM)
Average97 °F23%29.66 "Hg
* Reported May 16 1:00 AM — May 31 1:00 AM, Bhilwara, Weather by CustomWeather, © 2015

Note: Actual official high and low records may vary slightly from our data, if they occured in-between our weather recording intervals... More about our weather records

Advertising

Bhilwara weather history for previous 24 hours

 ConditionsComfort  
Time TempWeatherWind HumidityBarometerVisibility
1:00 AM
Sun, May 31
95 °FExtremely hot.N/A23%29.71 "HgN/A
12:00 AM97 °FHaze.9 mph22%29.71 "Hg2 mi
10:00 PM
Sat, May 30
99 °FHaze.3 mph19%29.71 "Hg2 mi
9:00 PM100 °FHaze.3 mph18%29.68 "Hg2 mi
8:00 PM102 °FHaze.6 mph17%29.68 "Hg2 mi
7:30 PM102 °FHaze.6 mph17%29.65 "Hg2 mi
7:00 PM104 °FHaze.6 mph15%29.65 "Hg2 mi
6:30 PM104 °FHaze.7 mph15%29.65 "Hg2 mi
6:00 PM106 °FHaze.8 mph14%29.65 "Hg2 mi
5:00 PM106 °FScattered clouds.9 mph13%29.65 "Hg2 mi
4:00 PM106 °FScattered clouds.8 mph13%29.68 "Hg2 mi
3:00 PM106 °FHaze.14 mph14%29.68 "Hg2 mi
2:00 PM106 °FHaze.10 mph14%29.71 "Hg3 mi
1:00 PM104 °FHaze.7 mph17%29.74 "Hg3 mi
12:00 PM102 °FHaze.10 mph18%29.77 "Hg3 mi
11:00 AM102 °FDuststorm.8 mph18%29.77 "Hg3 mi
10:00 AM100 °FDuststorm.5 mph21%29.77 "Hg3 mi
9:00 AM97 °FDuststorm.3 mph23%29.77 "Hg2 mi
8:00 AM95 °FDuststorm.2 mph26%29.77 "Hg2 mi
7:00 AM91 °FDuststorm.No wind34%29.77 "Hg2 mi
6:00 AM90 °FDuststorm.No wind33%29.74 "Hg2 mi
5:30 AM90 °FDuststorm.No wind31%29.74 "Hg2 mi
5:00 AM88 °FDuststorm.No wind33%29.74 "Hg2 mi
4:00 AM90 °FDuststorm.No wind31%29.71 "Hg2 mi
3:00 AM90 °FDuststorm.No wind31%29.71 "Hg2 mi
Weather by CustomWeather, © 2015

See weather overviewHow to use our weather pages